CZ-3B DEB, 40166

Orbit data source: Space-Track

CZ-3B DEB, 40166 is space debris in HEO originally from a launch on Sat, 04 Sep 2010 UTC launched from the Xichang Space Center, China (XSC). Debris objects in space refer to the collection of defunct objects orbiting the Earth. Examples of debris include non-operational satellites, rocket bodies, and fragments generated from explosions, collisions, or faulty payload assembly.

Loading next visibility...
Identifier
40166, 2010-042T
Orbit
HEO
Country
Flag of CNCN / PRC
Related business
Manufacturer
CALT
Mission
Spacecraft
Bus & Motor
Unknown
Mass
Unknown
Launch date (UTC)
2010-09-04 (16 years ago)
Launch vehicle
Unknown
Launch site
Xichang Space Center, China (XSC)
Object type
Payload
Rocket body
Debris
Shape & HBR
Unknown shape, 0.2 m
Radar Cross Section
Medium (>0.1 m² and <1 m²)

Expand to show TLE details & history
Last TLE update: 9 months ago

TLE from 9 months ago
0 CZ-3B DEB
1 40166U 10042T   25217.41747106 -.00000063  00000-0  00000-0 0  9991
2 40166  26.9214   3.4359 7078404 196.5354 114.2022  1.96662520 77878
Epoch: 2025-08-05T10:01Z
TLE epoch observation values (Epoch: 2025-08-05T10:01:09.499Z)
Latitude
-0.26978°
Longitude
-101.60072°
Altitude
35,144.818 km
Speed
2.095 km/s
True Right ascension
00h 11m 35s
True Declination
0° 16' 10"
Sunlit
Object was in daylight at epoch
Visualization orbit readout
Latitude
Unknown
Longitude
Unknown
Altitude
Unknown
Speed
Unknown
Apparent Right ascension
Unknown
Apparent Declination
Unknown
Sunlit
N/A
Visualization observer readout
Local Sidereal Time
00:55:04
Azimuth
Unknown
Elevation
Unknown
Doppler factor
Unknown
Orbital elements
Apogee altitude
39,586.117 km
Perigee altitude
1,484.95 km
Semi-major axis
26,913.671 km
Eccentricity
0.70784
Inclination
26.9214°
RAAN
3.4359°
Arg. of periapsis
196.5354°
True anomaly
162.95843°
Mean anomaly
114.2022°
Eccentric anomaly
140.17581°
Mean motion
0.49157 °/min
Orbital period
732.35 mins
BSTAR
0
Loading maneuver chart data...
Computing Atmospheric mass density...
Loading historical data...
Loading historical data...
Loading historical data...
Loading historical data...
Loading historical data...
Loading historical data...
Loading historical data...

Documentation

Showing up to 5 results
|